| time (UTC) | temp C | wind direction | speed KPH | gust KPH | rain 1hr cm | rain 24hr cm | rain mn cm | humidity % | barometer mb |
| 20260510151324 | 7 | 159 | 3.2 | 6.4 | 0.00 | 0.00 | 0.15 | 84 | 1026.0 |
| 20260510150824 | 7 | 135 | 6.4 | 8.0 | 0.00 | 0.00 | 0.15 | 85 | 1026.0 |
| 20260510150322 | 7 | 157 | 3.2 | 4.8 | 0.00 | 0.00 | 0.15 | 85 | 1026.0 |
| 20260510145822 | 7 | 280 | 3.2 | 4.8 | 0.00 | 0.00 | 0.15 | 86 | 1026.0 |
| 20260510145322 | 7 | 163 | 3.2 | 6.4 | 0.00 | 0.00 | 0.15 | 87 | 1026.0 |
| 20260510144822 | 7 | 252 | 4.8 | 6.4 | 0.00 | 0.00 | 0.15 | 87 | 1026.0 |
| 20260510144322 | 6 | 240 | 3.2 | 3.2 | 0.00 | 0.00 | 0.15 | 88 | 1026.0 |
| 20260510143823 | 6 | 292 | 4.8 | 6.4 | 0.00 | 0.00 | 0.15 | 88 | 1026.0 |
| 20260510143323 | 6 | 296 | 3.2 | 4.8 | 0.00 | 0.00 | 0.15 | 88 | 1026.0 |
| 20260510142822 | 6 | 305 | 1.6 | 3.2 | 0.00 | 0.00 | 0.15 | 88 | 1026.0 |
| 20260510142322 | 6 | 314 | 3.2 | 3.2 | 0.00 | 0.00 | 0.15 | 88 | 1026.0 |
| 20260510141822 | 6 | 320 | 3.2 | 3.2 | 0.00 | 0.00 | 0.15 | 88 | 1026.0 |
| 20260510141322 | 6 | 25 | 0.0 | 3.2 | 0.00 | 0.00 | 0.15 | 89 | 1026.0 |
| 20260510140823 | 6 | 336 | 1.6 | 3.2 | 0.00 | 0.00 | 0.15 | 90 | 1026.0 |
| 20260510140322 | 6 | 307 | 4.8 | 6.4 | 0.00 | 0.00 | 0.15 | 91 | 1026.0 |
| 20260510135822 | 6 | 301 | 3.2 | 4.8 | 0.00 | 0.00 | 0.15 | 91 | 1026.0 |
| 20260510135322 | 6 | 313 | 3.2 | 3.2 | 0.00 | 0.00 | 0.15 | 92 | 1026.0 |
| 20260510134822 | 6 | 323 | 3.2 | 4.8 | 0.00 | 0.00 | 0.15 | 92 | 1026.0 |
| 20260510134324 | 6 | 325 | 3.2 | 6.4 | 0.00 | 0.00 | 0.15 | 92 | 1026.0 |
| 20260510133822 | 6 | 330 | 1.6 | 4.8 | 0.00 | 0.00 | 0.15 | 92 | 1026.0 |
| 20260510133323 | 6 | 339 | 1.6 | 3.2 | 0.00 | 0.00 | 0.15 | 92 | 1026.0 |
| 20260510132823 | 6 | 8 | 3.2 | 4.8 | 0.00 | 0.00 | 0.15 | 92 | 1026.0 |
| 20260510132322 | 6 | 359 | 3.2 | 6.4 | 0.00 | 0.00 | 0.15 | 93 | 1026.0 |
| 20260510131822 | 6 | 28 | 3.2 | 3.2 | 0.00 | 0.00 | 0.15 | 93 | 1026.0 |
| 20260510131323 | 6 | 350 | 3.2 | 4.8 | 0.00 | 0.00 | 0.15 | 93 | 1026.0 |
| 20260510130824 | 6 | 331 | 3.2 | 4.8 | 0.00 | 0.00 | 0.15 | 94 | 1026.0 |
| 20260510130323 | 6 | 323 | 1.6 | 3.2 | 0.00 | 0.00 | 0.15 | 94 | 1026.0 |
| 20260510125822 | 5 | 3 | 0.0 | 1.6 | 0.00 | 0.00 | 0.15 | 95 | 1025.0 |
| 20260510125323 | 5 | 1 | 0.0 | 1.6 | 0.00 | 0.00 | 0.15 | 96 | 1025.0 |
| 20260510124822 | 5 | 33 | 0.0 | 3.2 | 0.00 | 0.00 | 0.15 | 96 | 1025.0 |
| 20260510124322 | 5 | 312 | 3.2 | 3.2 | 0.00 | 0.00 | 0.15 | 96 | 1025.0 |
| 20260510123823 | 5 | 345 | 0.0 | 0.0 | 0.00 | 0.00 | 0.15 | 97 | 1025.0 |
| 20260510123322 | 5 | 321 | 1.6 | 3.2 | 0.00 | 0.00 | 0.15 | 97 | 1025.0 |
| 20260510122822 | 5 | 353 | 0.0 | 1.6 | 0.00 | 0.00 | 0.15 | 97 | 1025.0 |
| 20260510122322 | 5 | 9 | 1.6 | 3.2 | 0.00 | 0.00 | 0.15 | 97 | 1025.0 |
| 20260510121823 | 5 | 320 | 1.6 | 3.2 | 0.00 | 0.00 | 0.15 | 97 | 1025.0 |
| 20260510121322 | 5 | 358 | 1.6 | 4.8 | 0.00 | 0.00 | 0.15 | 97 | 1025.0 |
| 20260510120824 | 5 | 355 | 1.6 | 3.2 | 0.00 | 0.00 | 0.15 | 97 | 1025.0 |
| 20260510120322 | 5 | 335 | 3.2 | 4.8 | 0.00 | 0.00 | 0.15 | 97 | 1025.0 |
| 20260510115822 | 5 | 341 | 3.2 | 4.8 | 0.00 | 0.00 | 0.15 | 97 | 1025.0 |
| 20260510115322 | 5 | 356 | 1.6 | 4.8 | 0.00 | 0.00 | 0.15 | 97 | 1025.0 |
| 20260510114823 | 5 | 54 | 1.6 | 3.2 | 0.00 | 0.00 | 0.15 | 97 | 1025.0 |
| 20260510114322 | 5 | 0 | 0.0 | 0.0 | 0.00 | 0.00 | 0.15 | 97 | 1025.0 |
| 20260510113822 | 5 | 276 | 0.0 | 1.6 | 0.00 | 0.00 | 0.15 | 97 | 1025.0 |
| 20260510113322 | 5 | 250 | 1.6 | 3.2 | 0.00 | 0.00 | 0.15 | 97 | 1025.0 |
| 20260510112822 | 5 | 298 | 0.0 | 1.6 | 0.00 | 0.00 | 0.15 | 97 | 1025.0 |
| 20260510112322 | 5 | 307 | 0.0 | 3.2 | 0.00 | 0.00 | 0.15 | 97 | 1025.0 |
| 20260510111824 | 5 | 319 | 0.0 | 1.6 | 0.00 | 0.00 | 0.15 | 97 | 1025.0 |
| 20260510111322 | 5 | 0 | 0.0 | 0.0 | 0.00 | 0.00 | 0.15 | 97 | 1025.0 |
| 20260510110822 | 5 | 268 | 0.0 | 1.6 | 0.00 | 0.00 | 0.15 | 97 | 1025.0 |
| 20260510110323 | 5 | 347 | 0.0 | 1.6 | 0.00 | 0.00 | 0.15 | 97 | 1025.0 |
| 20260510105822 | 5 | 4 | 0.0 | 1.6 | 0.00 | 0.00 | 0.15 | 97 | 1025.0 |
| 20260510105322 | 5 | 202 | 0.0 | 1.6 | 0.00 | 0.00 | 0.15 | 97 | 1025.0 |
| 20260510104822 | 5 | 153 | 3.2 | 3.2 | 0.00 | 0.00 | 0.15 | 97 | 1025.0 |
| 20260510104322 | 5 | 60 | 0.0 | 1.6 | 0.00 | 0.00 | 0.15 | 96 | 1025.0 |
| 20260510103822 | 5 | 55 | 0.0 | 3.2 | 0.00 | 0.00 | 0.15 | 96 | 1025.0 |
| 20260510103322 | 5 | 182 | 0.0 | 1.6 | 0.00 | 0.00 | 0.15 | 96 | 1025.0 |
| 20260510102822 | 5 | 229 | 3.2 | 4.8 | 0.03 | 0.00 | 0.15 | 96 | 1025.0 |
| 20260510102323 | 5 | 289 | 1.6 | 3.2 | 0.13 | 0.00 | 0.13 | 96 | 1025.0 |
| 20260510101822 | 5 | 41 | 0.0 | 1.6 | 0.03 | 0.00 | 0.13 | 96 | 1025.0 |
| 20260510101323 | 5 | 311 | 1.6 | 3.2 | 0.00 | 0.00 | 0.13 | 95 | 1025.0 |
| 20260510100823 | 5 | 312 | 3.2 | 3.2 | 0.08 | 0.00 | 0.10 | 95 | 1025.0 |
| 20260510100322 | 5 | 348 | 1.6 | 3.2 | 0.03 | 0.00 | 0.10 | 95 | 1025.0 |
| 20260510095822 | 5 | 56 | 1.6 | 3.2 | 0.28 | 0.00 | 0.08 | 95 | 1025.0 |
| 20260510095324 | 5 | 345 | 0.0 | 1.6 | 0.46 | 0.00 | 0.05 | 95 | 1025.0 |
| 20260510094822 | 5 | 9 | 1.6 | 3.2 | 0.38 | 0.00 | 0.00 | 95 | 1025.0 |
| 20260510093835 | 5 | 333 | 3.2 | 4.8 | 0.00 | 0.00 | 0.00 | 95 | 1025.0 |
| 20260510093324 | 5 | 354 | 3.2 | 4.8 | 0.00 | 0.00 | 0.00 | 95 | 1025.0 |
| 20260510092823 | 5 | 352 | 1.6 | 3.2 | 0.00 | 0.00 | 0.00 | 95 | 1025.0 |
| 20260510092324 | 5 | 348 | 3.2 | 6.4 | 0.00 | 0.00 | 0.00 | 94 | 1025.0 |
| 20260510091823 | 5 | 73 | 1.6 | 4.8 | 0.00 | 0.00 | 0.00 | 94 | 1025.0 |
| 20260510091322 | 5 | 125 | 3.2 | 4.8 | 0.00 | 0.00 | 0.00 | 94 | 1024.0 |
| 20260510090824 | 5 | 130 | 1.6 | 4.8 | 0.00 | 0.00 | 0.00 | 94 | 1025.0 |
| 20260510090323 | 5 | 70 | 3.2 | 6.4 | 0.00 | 0.00 | 0.00 | 94 | 1025.0 |
| 20260510085823 | 5 | 174 | 1.6 | 4.8 | 0.00 | 0.00 | 0.00 | 94 | 1025.0 |
| 20260510085322 | 5 | 190 | 1.6 | 4.8 | 0.00 | 0.00 | 0.00 | 94 | 1024.0 |
| 20260510084822 | 5 | 348 | 3.2 | 4.8 | 0.00 | 0.00 | 0.00 | 94 | 1024.0 |
| 20260510084322 | 5 | 351 | 4.8 | 8.0 | 0.00 | 0.00 | 0.00 | 93 | 1024.0 |
| 20260510083822 | 5 | 16 | 4.8 | 6.4 | 0.00 | 0.00 | 0.00 | 94 | 1024.0 |
| 20260510083323 | 5 | 353 | 4.8 | 8.0 | 0.00 | 0.00 | 0.00 | 94 | 1024.0 |
| 20260510082823 | 5 | 357 | 3.2 | 6.4 | 0.00 | 0.00 | 0.00 | 94 | 1024.0 |
| 20260510082322 | 5 | 348 | 3.2 | 6.4 | 0.00 | 0.00 | 0.00 | 94 | 1024.0 |
| 20260510081822 | 5 | 342 | 1.6 | 4.8 | 0.00 | 0.00 | 0.00 | 94 | 1024.0 |
| 20260510081322 | 5 | 351 | 3.2 | 6.4 | 0.00 | 0.00 | 0.00 | 94 | 1024.0 |
| 20260510080823 | 5 | 334 | 4.8 | 6.4 | 0.00 | 0.00 | 0.00 | 94 | 1024.0 |
| 20260510080322 | 5 | 345 | 4.8 | 6.4 | 0.00 | 0.00 | 0.00 | 94 | 1024.0 |
| 20260510075823 | 5 | 9 | 3.2 | 8.0 | 0.00 | 0.00 | 0.00 | 94 | 1024.0 |
| 20260510075323 | 5 | 357 | 6.4 | 11.3 | 0.00 | 0.00 | 0.00 | 94 | 1024.0 |
| 20260510074823 | 5 | 347 | 8.0 | 12.9 | 0.00 | 0.00 | 0.00 | 94 | 1024.0 |
| 20260510074323 | 5 | 334 | 4.8 | 8.0 | 0.00 | 0.00 | 0.00 | 94 | 1024.0 |
| 20260510073822 | 5 | 347 | 4.8 | 8.0 | 0.00 | 0.00 | 0.00 | 94 | 1024.0 |
| 20260510073324 | 5 | 357 | 6.4 | 11.3 | 0.00 | 0.00 | 0.00 | 93 | 1024.0 |
| 20260510072822 | 5 | 346 | 4.8 | 8.0 | 0.00 | 0.00 | 0.00 | 93 | 1024.0 |
| 20260510072322 | 5 | 349 | 6.4 | 9.7 | 0.00 | 0.00 | 0.00 | 93 | 1024.0 |
| 20260510071824 | 5 | 352 | 6.4 | 14.5 | 0.00 | 0.00 | 0.00 | 93 | 1024.0 |
| 20260510071322 | 5 | 346 | 3.2 | 9.7 | 0.00 | 0.00 | 0.00 | 93 | 1024.0 |
| 20260510070825 | 5 | 351 | 4.8 | 8.0 | 0.00 | 0.00 | 0.00 | 92 | 1024.0 |
| 20260510070325 | 5 | 8 | 6.4 | 11.3 | 0.00 | 0.00 | 0.00 | 92 | 1024.0 |
| 20260510065823 | 5 | 9 | 4.8 | 8.0 | 0.00 | 0.00 | 0.00 | 92 | 1024.0 |
| 20260510065322 | 5 | 349 | 8.0 | 14.5 | 0.00 | 0.00 | 0.00 | 92 | 1024.0 |
| 20260510064822 | 6 | 7 | 4.8 | 9.7 | 0.00 | 0.00 | 0.00 | 92 | 1024.0 |
| 20260510064323 | 6 | 350 | 8.0 | 11.3 | 0.00 | 0.00 | 0.00 | 92 | 1024.0 |
| 20260510063823 | 6 | 349 | 6.4 | 11.3 | 0.00 | 0.00 | 0.00 | 91 | 1024.0 |
| 20260510063322 | 6 | 0 | 6.4 | 12.9 | 0.00 | 0.00 | 0.00 | 91 | 1024.0 |
| 20260510062823 | 6 | 349 | 6.4 | 9.7 | 0.00 | 0.00 | 0.00 | 90 | 1024.0 |
| 20260510062322 | 6 | 357 | 6.4 | 11.3 | 0.00 | 0.00 | 0.00 | 90 | 1024.0 |
| 20260510061823 | 6 | 355 | 6.4 | 9.7 | 0.00 | 0.00 | 0.00 | 90 | 1024.0 |
| 20260510061323 | 6 | 338 | 6.4 | 8.0 | 0.00 | 0.00 | 0.00 | 89 | 1024.0 |
| 20260510060826 | 6 | 6 | 4.8 | 8.0 | 0.00 | 0.00 | 0.00 | 88 | 1024.0 |
| 20260510060322 | 6 | 0 | 3.2 | 8.0 | 0.00 | 0.00 | 0.00 | 88 | 1024.0 |
| 20260510055822 | 6 | 354 | 8.0 | 14.5 | 0.00 | 0.00 | 0.00 | 87 | 1024.0 |
| 20260510055322 | 6 | 354 | 4.8 | 8.0 | 0.00 | 0.00 | 0.00 | 87 | 1024.0 |
| 20260510054822 | 7 | 333 | 11.3 | 16.1 | 0.00 | 0.00 | 0.00 | 86 | 1024.0 |
| 20260510054322 | 7 | 337 | 3.2 | 6.4 | 0.00 | 0.00 | 0.00 | 85 | 1024.0 |
| 20260510053822 | 7 | 3 | 9.7 | 16.1 | 0.00 | 0.00 | 0.00 | 83 | 1024.0 |
| 20260510053322 | 7 | 356 | 8.0 | 16.1 | 0.00 | 0.00 | 0.00 | 82 | 1024.0 |
| 20260510052822 | 7 | 10 | 8.0 | 12.9 | 0.00 | 0.00 | 0.00 | 83 | 1024.0 |
| 20260510052323 | 7 | 352 | 9.7 | 12.9 | 0.00 | 0.00 | 0.00 | 83 | 1024.0 |
| 20260510051822 | 7 | 343 | 8.0 | 17.7 | 0.00 | 0.00 | 0.00 | 83 | 1024.0 |
| 20260510051322 | 7 | 14 | 6.4 | 11.3 | 0.00 | 0.00 | 0.00 | 83 | 1024.0 |
| 20260510050822 | 7 | 348 | 9.7 | 14.5 | 0.00 | 0.00 | 0.00 | 84 | 1024.0 |
| 20260510050322 | 7 | 342 | 9.7 | 14.5 | 0.00 | 0.00 | 0.00 | 83 | 1024.0 |
| 20260510045822 | 7 | 0 | 8.0 | 16.1 | 0.00 | 0.00 | 0.00 | 83 | 1024.0 |
| 20260510045322 | 7 | 356 | 9.7 | 14.5 | 0.00 | 0.00 | 0.00 | 82 | 1024.0 |
| 20260510044822 | 7 | 5 | 11.3 | 14.5 | 0.00 | 0.00 | 0.00 | 82 | 1024.0 |
| 20260510044322 | 7 | 0 | 8.0 | 17.7 | 0.00 | 0.00 | 0.00 | 82 | 1024.0 |
| 20260510043823 | 7 | 17 | 9.7 | 16.1 | 0.00 | 0.00 | 0.00 | 82 | 1024.0 |
| 20260510043322 | 7 | 351 | 12.9 | 14.5 | 0.00 | 0.00 | 0.00 | 81 | 1024.0 |
| 20260510042822 | 7 | 349 | 14.5 | 22.5 | 0.00 | 0.00 | 0.00 | 80 | 1023.0 |
| 20260510042322 | 7 | 1 | 17.7 | 30.6 | 0.00 | 0.00 | 0.00 | 79 | 1024.0 |
| 20260510041825 | 7 | 356 | 16.1 | 20.9 | 0.00 | 0.00 | 0.00 | 78 | 1024.0 |
| 20260510041322 | 7 | 8 | 9.7 | 16.1 | 0.00 | 0.00 | 0.00 | 78 | 1024.0 |
| 20260510040823 | 7 | 358 | 16.1 | 20.9 | 0.00 | 0.00 | 0.00 | 78 | 1023.0 |
| 20260510040323 | 7 | 338 | 11.3 | 19.3 | 0.00 | 0.00 | 0.00 | 78 | 1023.0 |
| 20260510035822 | 8 | 14 | 12.9 | 24.1 | 0.00 | 0.00 | 0.00 | 77 | 1024.0 |
| 20260510035322 | 8 | 342 | 11.3 | 16.1 | 0.00 | 0.00 | 0.00 | 77 | 1023.0 |
| 20260510034822 | 8 | 353 | 12.9 | 22.5 | 0.00 | 0.00 | 0.00 | 77 | 1023.0 |
| 20260510034322 | 8 | 353 | 11.3 | 17.7 | 0.00 | 0.00 | 0.00 | 77 | 1023.0 |
| 20260510033822 | 8 | 0 | 14.5 | 22.5 | 0.00 | 0.00 | 0.00 | 77 | 1023.0 |
| 20260510033322 | 8 | 11 | 12.9 | 19.3 | 0.00 | 0.00 | 0.00 | 76 | 1023.0 |
| 20260510032822 | 8 | 8 | 14.5 | 20.9 | 0.00 | 0.00 | 0.00 | 76 | 1023.0 |
| 20260510032322 | 8 | 0 | 12.9 | 20.9 | 0.00 | 0.00 | 0.00 | 76 | 1023.0 |
| 20260510031822 | 8 | 13 | 12.9 | 20.9 | 0.00 | 0.00 | 0.00 | 76 | 1023.0 |
| 20260510031322 | 8 | 347 | 11.3 | 17.7 | 0.00 | 0.00 | 0.00 | 75 | 1022.0 |
| 20260510030823 | 8 | 347 | 17.7 | 29.0 | 0.00 | 0.00 | 0.00 | 74 | 1022.0 |
| 20260510030322 | 8 | 0 | 8.0 | 14.5 | 0.00 | 0.00 | 0.00 | 73 | 1022.0 |
| 20260510025823 | 9 | 7 | 9.7 | 19.3 | 0.00 | 0.00 | 0.00 | 71 | 1021.0 |
| 20260510025322 | 9 | 357 | 14.5 | 19.3 | 0.00 | 0.00 | 0.00 | 70 | 1021.0 |
| 20260510024823 | 9 | 5 | 9.7 | 19.3 | 0.00 | 0.00 | 0.00 | 69 | 1021.0 |
| 20260510024322 | 10 | 349 | 9.7 | 14.5 | 0.00 | 0.00 | 0.00 | 68 | 1021.0 |
| 20260510023822 | 10 | 350 | 12.9 | 19.3 | 0.00 | 0.00 | 0.00 | 67 | 1021.0 |
| 20260510023323 | 11 | 3 | 12.9 | 20.9 | 0.00 | 0.00 | 0.00 | 65 | 1020.0 |